Location: Cahas Mountain Overlook
(37.0833°N, 80.1000°W)
Time: 19:10:52
(UTC-04:00)

Explorer 7 - Pass Details

Date: 12 February 2026
Orbit: 430 x 541 km, 50.2° (Epoch: 13 March)

Event Time Altitude Azimuth Distance (km) Brightness Sun altitude
Rises 17:01:12 0° 235° (SW) 2,431 12.2 9.6°
Reaches altitude 10° 17:03:17 10° 237° (WSW) 1,579 11.8 9.3°
Maximum altitude 17:06:50 74° 323° (NW) 487 6.8 8.6°
Drops below altitude 10° 17:10:34 10° 49° (NE) 1,653 8.7 7.9°
Sets 17:12:48 0° 51° (NE) 2,558 9.6 7.5°
